CZ-11 R/B, 41847

Orbit data source: Space-Track

CZ-11 R/B, 41847 is space debris in SSO originally from a launch on Wed, 09 Nov 2016 UTC via a CHANG ZHENG 11 launch vehicle from the Jiuquan Satellite Launch Center, China (JSC). Debris objects in space refer to the collection of defunct objects orbiting the Earth. Examples of debris include non-operational satellites, rocket bodies, and fragments generated from explosions, collisions, or faulty payload assembly.

Loading next visibility...
Identifier
41847, 2016-066G
Orbit
SSO
Country
Flag of CNCN / PRC
Related business
Flag of CNXpeng Aeroht (CN)
Manufacturer
Kechuang Hangtian
Mission
Partially operational spacecraft
Bus & Motor
KS-1, Unknown motor
Mass
503 kg wet, 1 kg dry
Launch date (UTC)
2016-11-09 (9 years ago)
Launch vehicle
CHANG ZHENG 11
Launch site
Jiuquan Satellite Launch Center, China (JSC)
Object type
Payload
Rocket body
Debris
Shape & HBR
Unknown
Radar Cross Section
Large (>1 m²)

Expand to show TLE details & history
Last TLE update: 16 hours ago

TLE from 16 hours ago
0 CZ-11 R/B
1 41847U 16066G   25309.20794863  .00001623  00000-0  23597-3 0  9992
2 41847  98.4079  22.3154 0345441  88.6825 275.3907 14.43992650472467
Epoch: 2025-11-05T04:59Z
TLE epoch observation values (Epoch: 2025-11-05T04:59:26.761Z)
Latitude
-0.00011°
Longitude
-97.23001°
Altitude
733.638 km
Speed
7.496 km/s
True Right ascension
01h 29m 15s
True Declination
0° 00' 00"
Sunlit
Object was in full shadow at epoch
Visualization orbit readout
Latitude
Unknown
Longitude
Unknown
Altitude
Unknown
Speed
Unknown
Apparent Right ascension
Unknown
Apparent Declination
Unknown
Sunlit
N/A
Visualization observer readout
Local Sidereal Time
16:56:46
Azimuth
Unknown
Elevation
Unknown
Doppler factor
Unknown
Orbital elements
Apogee altitude
988.418 km
Perigee altitude
496.47 km
Semi-major axis
7,120.581 km
Eccentricity
0.03454
Inclination
98.4079°
RAAN
22.3154°
Arg. of periapsis
88.6825°
True anomaly
271.43684°
Mean anomaly
275.3907°
Eccentric anomaly
273.41498°
Mean motion
3.61219 °/min
Orbital period
99.66 mins
BSTAR
0.00023597
Loading maneuver chart data...
Computing Atmospheric mass density...
Loading historical data...
Loading historical data...
Loading historical data...
Loading historical data...
Loading historical data...
Loading historical data...
Loading historical data...

Documentation

Showing up to 5 results
|